GPS BIIF-12

Last updated on July 11, 2020, 5:25 a.m. UTC

1 41328U 16007A   20192.04271346  .00000052  00000-0  00000-0 0  9990
2 41328  54.8295 175.5391 0042336 223.0744 136.5764  2.00556509 32407
UTC
Height (km)
Latitude
Longitude
Inclination
Orbital Period
UTC large
Height (km)
Speed (km/s)
/
Latitude / Longitude
Inclination (degrees)
Orbital Period (minutes)
Azimuth
Elevation
Range (km)
Doppler Factor
iOS Compass Heading
iOS Angle

Next 30 passes for location: Hong Kong

Rise time Rise Azimuth (degrees) Set time Set Azimuth (degrees) Duration Max altitude (degrees)

No matching passes for this satellites